GFSNIL_con_mlcape_000.txt.gz
CAPE
58 0 0 1 0 0 0 0 0 1 1 3 28 67 155 243 310 372 409 536 508 644
113 67 2 6 32 4 0 0 0 6 10 30 70 180 290 207 172 231 347 383 396 401
0 20 2 0 0 17 31 29 30 26 30 50 87 84 133 86 106 335 347 348 264 264
0 0 0 0 4 25 35 80 73 158 197 190 219 217 190 138 46 53 98 116 76 180
0 0 0 0 0 2 0 65 96 169 403 376 332 348 392 293 206 153 75 86 76 102
0 0 0 0 0 0 29 73 169 340 304 205 395 364 361 399 190 78 53 14 3 0
0 0 0 0 0 34 131 211 379 424 397 474 524 484 477 400 177 45 9 0 3 0
0 47 0 64 175 201 168 135 277 274 382 399 410 478 516 157 167 59 8 4 0 0
73 234 320 175 241 211 117 92 210 260 287 447 512 161 0 0 103 38 51 21 0 0
274 301 286 76 142 148 243 274 189 215 309 455 500 238 0 0 74 53 3 34 25 0
276 325 330 144 106 139 279 236 181 224 386 372 325 179 15 0 99 146 96 40 75 20
267 372 416 278 264 320 265 123 108 262 423 388 354 116 113 0 156 203 101 167 52 30
235 447 355 331 291 279 267 168 247 276 403 475 274 269 117 48 171 144 179 144 67 22
465 701 710 350 348 299 410 371 376 487 503 343 154 400 92 19 137 187 202 56 18 30

GFSNIL_con_mlcape_003.txt.gz
CAPE
246 0 5 2 29 0 0 0 0 6 1 6 21 44 118 173 173 168 165 191 347 331
257 176 68 93 102 1 11 12 14 3 10 55 37 55 71 62 225 256 216 287 224 208
0 38 133 72 61 68 56 65 49 19 21 64 100 172 202 155 136 117 106 153 89 162
0 0 24 1 1 18 73 118 113 59 56 158 216 222 315 299 298 204 286 223 28 39
16 39 2 0 0 0 2 9 52 60 142 185 220 217 349 404 372 431 181 121 15 4
54 86 92 93 3 0 0 17 80 106 122 197 276 351 469 479 443 367 312 136 87 16
35 198 183 132 50 102 133 140 128 117 151 196 304 398 549 569 558 374 344 207 130 24
72 257 367 277 189 161 149 110 108 107 173 112 178 170 559 629 431 430 370 256 215 55
87 216 345 345 258 214 157 102 139 135 139 271 220 149 211 175 249 419 331 235 144 213
281 485 470 217 188 166 194 243 327 234 176 242 412 157 200 66 99 286 325 292 196 130
416 475 463 370 265 245 277 390 364 266 239 342 332 151 143 96 153 216 311 497 282 231
472 498 556 470 442 314 488 298 317 281 235 444 603 369 169 124 204 227 399 349 331 188
426 391 563 528 546 513 557 332 259 170 206 321 485 550 98 56 126 308 388 363 271 105
463 492 550 787 647 298 600 515 553 283 456 550 458 241 74 0 37 119 240 178 66 58

GFSNIL_con_mlcape_006.txt.gz
CAPE
66 70 127 315 223 26 0 36 12 90 96 79 140 84 59 3 59 134 17 0 10 120
349 229 123 185 157 64 199 105 128 89 40 101 95 31 19 47 2 72 52 37 58 0
264 180 275 218 118 152 140 166 214 189 179 125 178 205 74 5 74 77 34 151 84 115
0 0 120 111 67 63 190 223 269 246 201 185 190 252 105 56 138 78 178 214 72 98
86 21 15 21 48 61 91 91 91 149 178 157 233 226 23 103 207 230 255 300 153 117
112 147 189 185 210 131 104 70 230 233 159 116 180 274 248 320 234 440 508 413 193 210
228 279 318 308 405 174 256 312 336 278 238 143 310 307 391 340 340 348 497 448 330 272
168 313 465 496 386 320 324 414 384 197 310 466 482 313 243 329 246 353 356 497 398 295
259 356 434 603 699 528 550 399 317 274 347 249 383 108 99 91 196 215 161 133 361 242
352 393 515 612 544 554 354 331 378 346 433 386 358 404 166 96 132 189 285 291 385 223
591 613 724 739 545 512 518 479 357 386 448 330 353 318 85 125 202 276 351 424 337 211
758 770 822 879 717 582 562 408 505 474 394 357 273 250 149 56 218 352 231 381 378 312
951 965 921 896 681 712 616 369 36 376 549 540 468 89 77 5 0 0 73 164 275 192
1087 1079 956 957 876 821 463 42 417 577 426 481 322 77 3 36 26 27 86 18 42 64

GFSNIL_con_mlcape_009.txt.gz
CAPE
0 0 0 204 77 0 0 0 39 2 49 3 8 37 71 8 1 8 22 0 12 0
1 0 45 16 0 0 118 0 6 6 0 3 77 129 78 11 0 8 0 0 0 0
167 104 11 21 0 0 0 0 2 43 66 64 9 3 109 13 0 0 0 0 19 3
328 148 36 36 0 0 0 123 106 89 58 38 50 111 178 82 12 18 107 99 72 0
2 0 5 11 0 0 0 0 8 0 3 17 16 10 21 19 14 71 50 105 37 102
49 15 6 6 4 7 4 3 0 6 31 32 0 0 23 127 84 72 71 101 139 165
74 18 22 40 66 84 58 24 70 178 61 74 82 103 172 171 136 124 49 65 302 243
91 47 90 104 151 257 73 106 99 162 153 54 177 265 93 49 81 69 73 149 84 172
105 43 54 87 150 206 153 116 330 133 94 100 235 152 76 66 58 56 46 79 76 143
14 14 67 166 249 460 399 450 104 108 277 52 230 252 88 108 37 50 87 131 122 94
64 122 168 280 346 351 398 221 174 193 109 173 337 273 193 46 39 43 80 120 138 145
170 178 274 434 528 520 474 330 309 312 141 308 229 65 35 13 0 1 0 0 16 110
444 465 534 629 656 713 569 394 413 179 39 149 56 28 1 0 0 0 0 21 9 0
726 752 751 772 774 765 617 384 219 79 293 211 144 11 0 0 0 2 4 0 0 0